Location: G�kdere
(37.0328°N, 30.9000°E)
Time: 04:29:23
(UTC+00:00)

Hubble Space Telescope - Pass Details

Date: 03 March 2021
Orbit: 535 x 539 km, 28.5° (Epoch: 19 April)

Event Time Altitude Azimuth Distance (km) Brightness Sun altitude
Rises 17:30:41 0° 217° (SW) 2,660 4.7 -20.4°
Reaches altitude 10° 17:34:03 10° 188° (S) 1,773 3.4 -21.0°
Enters shadow 17:34:44 12° 179° (S) 1,674 3.2 -21.2°
